EW1857 Weather Reports


time (UTC)temp
C
wind
direction
speed
KPH
gust
KPH
rain 1hr
cm
rain 24hr
cm
rain mn
cm
humidity
%
barometer
mb
20260507225425 15 0.0 0.0 0.00 0.00 0.00 63 1010.4
20260507224422 15 0.0 0.0 0.00 0.00 0.00 63 1010.2
20260507223925 15 0.0 0.0 0.00 0.00 0.00 62 1010.2
20260507222920 15 0.0 0.0 0.00 0.00 0.00 62 1010.0
20260507221823 15 0.0 0.0 0.00 0.00 0.00 61 1010.0
20260507221124 15 0.0 0.0 0.00 0.00 0.00 61 1010.1
20260507215917 16 0.0 0.0 0.00 0.00 0.00 61 1010.1
20260507215424 16 0.0 0.0 0.00 0.00 0.00 61 1010.1
20260507214925 16 0.0 0.0 0.00 0.00 0.00 60 1009.7
20260507214424 16 0.0 0.0 0.00 0.00 0.00 60 1009.8
20260507213418 16 0.0 0.0 0.00 0.00 0.00 60 1009.8
20260507212924 16 0.0 0.0 0.00 0.00 0.00 60 1009.6
20260507212425 16 0.0 0.0 0.00 0.00 0.00 60 1009.6
20260507211927 16 0.0 0.0 0.00 0.00 0.00 61 1009.6
20260507210917 16 0.0 0.0 0.00 0.00 0.00 64 1009.5
20260507210421 16 0.0 0.0 0.00 0.00 0.00 63 1009.4
20260507205923 16 0.0 0.0 0.00 0.00 0.00 62 1009.4
20260507205421 16 0.0 0.0 0.00 0.00 0.00 62 1009.5
20260507204515 16 0.0 0.0 0.00 0.00 0.00 62 1009.3
20260507203517 16 0.0 0.0 0.00 0.00 0.00 62 1009.4
20260507202524 16 0.0 0.0 0.00 0.00 0.00 62 1009.2
20260507201516 16 0.0 0.0 0.00 0.00 0.00 60 1009.1
20260507200520 16 0.0 0.0 0.00 0.00 0.00 61 1009.1
20260507195417 16 0.0 0.0 0.00 0.00 0.00 60 1009.1
20260507194421 16 0.0 0.0 0.00 0.00 0.00 59 1008.7
20260507193925 16 0.0 0.0 0.00 0.00 0.00 58 1008.7
20260507192919 17 0.0 0.0 0.00 0.00 0.00 57 1008.6
20260507192423 17 0.0 0.0 0.00 0.00 0.00 57 1008.6
20260507191121 17 0.0 0.0 0.00 0.00 0.00 56 1008.2
20260507185916 17 0.0 0.0 0.00 0.00 0.00 56 1007.9
20260507185416 17 0.0 0.0 0.00 0.00 0.00 55 1007.8
20260507184415 17 0.0 0.0 0.00 0.00 0.00 54 1008.0
20260507183923 17 0.0 0.0 0.00 0.00 0.00 54 1008.0
20260507182917 17 0.0 0.0 0.00 0.00 0.00 53 1007.7
20260507182425 18 0.0 0.0 0.00 0.00 0.00 52 1007.7
20260507181925 18 0.0 0.0 0.00 0.00 0.00 52 1007.7
20260507180917 18 0.0 0.0 0.00 0.00 0.00 52 1007.4
20260507180424 18 0.0 0.0 0.00 0.00 0.00 51 1007.4
20260507175325 18 0.0 0.0 0.00 0.00 0.00 50 1007.4
20260507174320 18 0.0 0.0 0.00 0.00 0.00 49 1007.3
20260507173417 19 0.0 0.0 0.00 0.00 0.00 48 1007.3
20260507172417 19 0.0 0.0 0.00 0.00 0.00 47 1007.2
20260507171921 20 0.0 0.0 0.00 0.00 0.00 47 1007.2
20260507171426 20 0.0 0.0 0.00 0.00 0.00 47 1007.2
20260507170521 20 0.0 0.0 0.00 0.00 0.00 47 1006.9
20260507165421 20 0.0 0.0 0.00 0.00 0.00 46 1006.9
20260507164925 19 0.0 0.0 0.00 0.00 0.00 48 1006.5
20260507163916 19 0.0 0.0 0.00 0.00 0.00 48 1006.5
20260507163424 19 0.0 0.0 0.00 0.00 0.00 48 1006.5
20260507162417 19 0.0 0.0 0.00 0.00 0.00 47 1006.2
20260507161421 20 0.0 0.0 0.00 0.00 0.00 45 1006.3
20260507160920 20 0.0 0.0 0.00 0.00 0.00 44 1006.3
20260507160424 20 0.0 0.0 0.00 0.00 0.00 44 1006.3
20260507155925 20 0.0 0.0 0.00 0.00 0.00 44 1006.3
20260507154919 21 0.0 0.0 0.00 0.00 0.00 45 1006.5
20260507154423 21 0.0 0.0 0.00 0.00 0.00 44 1006.5
20260507153416 21 0.0 0.0 0.00 0.00 0.00 44 1006.4
20260507152416 21 0.0 0.0 0.00 0.00 0.00 42 1006.4
20260507151417 21 0.0 0.0 0.00 0.00 0.00 42 1006.4
20260507150924 21 0.0 0.0 0.00 0.00 0.00 41 1006.4
20260507150424 21 0.0 0.0 0.00 0.00 0.00 41 1006.4
20260507145926 21 0.0 0.0 0.00 0.00 0.00 41 1006.4
20260507145424 21 0.0 0.0 0.00 0.00 0.00 40 1006.4
20260507144923 21 0.0 0.0 0.00 0.00 0.00 40 1006.3
20260507143919 22 0.0 0.0 0.00 0.00 0.00 40 1006.3
20260507143423 22 0.0 0.0 0.00 0.00 0.00 39 1006.3
20260507142421 22 0.0 0.0 0.00 0.00 0.00 40 1006.4
20260507141925 22 0.0 0.0 0.00 0.00 0.00 40 1006.4
20260507141423 22 0.0 0.0 0.00 0.00 0.00 40 1006.4
20260507140518 22 0.0 0.0 0.00 0.00 0.00 38 1006.6
20260507135416 23 0.0 0.0 0.00 0.00 0.00 37 1006.7
20260507134422 23 0.0 0.0 0.00 0.00 0.00 38 1006.7
20260507133923 23 0.0 0.0 0.00 0.00 0.00 39 1006.7
20260507133425 23 0.0 0.0 0.00 0.00 0.00 38 1006.7
20260507132418 23 0.0 0.0 0.00 0.00 0.00 39 1006.7
20260507131923 23 0.0 0.0 0.00 0.00 0.00 39 1006.7
20260507131424 23 0.0 0.0 0.00 0.00 0.00 40 1006.7
20260507130919 23 0.0 0.0 0.00 0.00 0.00 41 1007.0
20260507130423 23 0.0 0.0 0.00 0.00 0.00 41 1007.0
20260507125924 23 0.0 0.0 0.00 0.00 0.00 42 1007.0
20260507125425 23 0.0 0.0 0.00 0.00 0.00 41 1007.0
20260507124418 23 0.0 0.0 0.00 0.00 0.00 43 1007.0
20260507123922 23 0.0 0.0 0.00 0.00 0.00 43 1007.0
20260507123424 23 0.0 0.0 0.00 0.00 0.00 44 1007.0
20260507122418 23 0.0 0.0 0.00 0.00 0.00 42 1007.4
20260507121923 23 0.0 0.0 0.00 0.00 0.00 42 1007.5
20260507120920 23 0.0 0.0 0.00 0.00 0.00 43 1007.5
20260507120424 23 0.0 0.0 0.00 0.00 0.00 44 1007.5
20260507115925 22 0.0 0.0 0.00 0.00 0.00 43 1007.5
20260507114916 23 0.0 0.0 0.00 0.00 0.00 44 1007.5
20260507113915 23 0.0 0.0 0.00 0.00 0.00 43 1007.5
20260507112917 23 0.0 0.0 0.00 0.00 0.00 44 1007.6
20260507112422 23 0.0 0.0 0.00 0.00 0.00 43 1007.6
20260507111923 24 0.0 0.0 0.00 0.00 0.00 43 1007.6
20260507111425 24 0.0 0.0 0.00 0.00 0.00 44 1007.6
20260507110927 23 0.0 0.0 0.00 0.00 0.00 45 1007.7
20260507105920 23 0.0 0.0 0.00 0.00 0.00 44 1007.7
20260507105425 23 0.0 0.0 0.00 0.00 0.00 45 1007.7
20260507104925 23 0.0 0.0 0.00 0.00 0.00 46 1007.9
20260507103916 22 0.0 0.0 0.00 0.00 0.00 47 1007.9
20260507102920 23 0.0 0.0 0.00 0.00 0.00 47 1007.1
20260507102424 23 0.0 0.0 0.00 0.00 0.00 46 1007.1
20260507101418 23 0.0 0.0 0.00 0.00 0.00 46 1007.1
20260507100520 23 0.0 0.0 0.00 0.00 0.00 48 1007.9
20260507100024 23 0.0 0.0 0.00 0.00 0.00 47 1007.9
20260507094921 23 0.0 0.0 0.00 0.00 0.00 47 1007.8
20260507093622 23 0.0 0.0 0.00 0.00 0.00 48 1007.8
20260507092916 23 0.0 0.0 0.00 0.00 0.00 48 1007.7
20260507091921 23 0.0 0.0 0.00 0.00 0.00 47 1007.7
20260507091426 23 0.0 0.0 0.00 0.00 0.00 49 1007.7
20260507090421 22 0.0 0.0 0.00 0.00 0.00 50 1007.4
20260507085922 22 0.0 0.0 0.00 0.00 0.00 51 1007.4
20260507085423 22 0.0 0.0 0.00 0.00 0.00 50 1007.4
20260507084924 22 0.0 0.0 0.00 0.00 0.00 52 1007.3
20260507083916 22 0.0 0.0 0.00 0.00 0.00 52 1007.3
20260507083424 22 0.0 0.0 0.00 0.00 0.00 51 1007.3
20260507082419 22 0.0 0.0 0.00 0.00 0.00 52 1007.2
20260507081926 22 0.0 0.0 0.00 0.00 0.00 51 1007.3
20260507080922 22 0.0 0.0 0.00 0.00 0.00 53 1007.2
20260507080425 21 0.0 0.0 0.00 0.00 0.00 52 1007.2
20260507075924 21 0.0 0.0 0.00 0.00 0.00 53 1007.2
20260507074918 21 0.0 0.0 0.00 0.00 0.00 54 1006.8
20260507074425 21 0.0 0.0 0.00 0.00 0.00 55 1006.8
20260507073927 21 0.0 0.0 0.00 0.00 0.00 55 1006.8
20260507073423 21 0.0 0.0 0.00 0.00 0.00 56 1006.8
20260507072519 21 0.0 0.0 0.00 0.00 0.00 56 1006.4
20260507071422 20 0.0 0.0 0.00 0.00 0.00 57 1006.4
20260507070520 20 0.0 0.0 0.00 0.00 0.00 59 1006.5
20260507065417 18 0.0 0.0 0.00 0.00 0.00 62 1006.5
20260507064421 18 0.0 0.0 0.00 0.00 0.00 62 1006.2
20260507063325 18 0.0 0.0 0.00 0.00 0.00 65 1006.1
20260507062415 17 0.0 0.0 0.00 0.00 0.00 66 1005.8
20260507061418 17 0.0 0.0 0.00 0.00 0.00 67 1005.8
20260507060416 17 0.0 0.0 0.00 0.00 0.00 68 1005.5
20260507055420 16 0.0 0.0 0.00 0.00 0.00 69 1005.5
20260507054925 16 0.0 0.0 0.00 0.00 0.00 69 1005.3
20260507054422 16 0.0 0.0 0.00 0.00 0.00 69 1005.3
20260507053923 16 0.0 0.0 0.00 0.00 0.00 69 1005.3
20260507052918 16 0.0 0.0 0.00 0.00 0.00 70 1005.1
20260507052422 16 0.0 0.0 0.00 0.00 0.00 70 1005.1
20260507051924 16 0.0 0.0 0.00 0.00 0.00 70 1005.1
20260507051424 16 0.0 0.0 0.00 0.00 0.00 70 1005.1
20260507050926 16 0.0 0.0 0.00 0.00 0.00 70 1005.0
20260507045915 15 0.0 0.0 0.00 0.00 0.00 70 1004.9
20260507044919 15 0.0 0.0 0.00 0.00 0.00 70 1004.6
20260507044021 15 0.0 0.0 0.00 0.00 0.00 70 1004.6
20260507042917 14 0.0 0.0 0.00 0.00 0.00 71 1004.8
20260507041922 14 0.0 0.0 0.00 0.00 0.00 71 1004.8
20260507041424 14 0.0 0.0 0.00 0.00 0.00 71 1004.8
20260507040927 14 0.0 0.0 0.00 0.00 0.00 71 1004.3
20260507040423 14 0.0 0.0 0.00 0.00 0.00 71 1004.3
20260507035926 14 0.0 0.0 0.00 0.00 0.00 71 1004.3
20260507034920 14 0.0 0.0 0.00 0.00 0.00 71 1003.9
20260507034025 14 0.0 0.0 0.00 0.00 0.00 71 1003.9
20260507033022 14 0.0 0.0 0.00 0.00 0.00 71 1004.0
20260507032120 13 0.0 0.0 0.00 0.00 0.00 71 1003.9
20260507031024 13 0.0 0.0 0.00 0.00 0.00 71 1003.8
20260507025916 13 0.0 0.0 0.00 0.00 0.00 71 1003.8
20260507025425 13 0.0 0.0 0.00 0.00 0.00 71 1003.8
20260507024416 14 0.0 0.0 0.00 0.00 0.00 71 1003.4
20260507023417 14 0.0 0.0 0.00 0.00 0.00 71 1003.4
20260507022416 14 0.0 0.0 0.00 0.00 0.00 71 1003.4
20260507021420 14 0.0 0.0 0.00 0.00 0.00 71 1003.4
20260507020924 14 0.0 0.0 0.00 0.00 0.00 71 1003.4
20260507015918 15 0.0 0.0 0.00 0.00 0.00 71 1003.4
20260507015422 15 0.0 0.0 0.00 0.00 0.00 71 1003.4
20260507014925 15 0.0 0.0 0.00 0.00 0.00 71 1003.2
20260507014425 15 0.0 0.0 0.00 0.00 0.00 71 1003.2
20260507013924 15 0.0 0.0 0.00 0.00 0.00 71 1003.1
20260507013425 14 0.0 0.0 0.00 0.00 0.00 71 1003.1
20260507012318 14 0.0 0.0 0.00 0.00 0.00 71 1002.7
20260507011420 14 0.0 0.0 0.00 0.00 0.00 71 1002.7
20260507010516 14 0.0 0.0 0.00 0.00 0.00 71 1002.1
20260507005420 15 0.0 0.0 0.00 0.00 0.00 71 1002.1
20260507004925 15 0.0 0.0 0.00 0.00 0.00 71 1002.1
20260507004423 15 0.0 0.0 0.00 0.00 0.00 71 1002.1
20260507003419 15 0.0 0.0 0.00 0.00 0.00 71 1002.1
20260507002716 15 0.0 0.0 0.00 0.00 0.00 71 1002.0
20260507001721 15 0.0 0.0 0.00 0.00 0.00 71 1002.0
20260507000625 15 0.0 0.0 0.00 0.00 0.00 71 1001.8
20260506235016 15 0.0 0.0 0.00 0.00 0.00 70 1001.4
20260506234021 15 0.0 0.0 0.00 0.00 0.00 70 1001.4
20260506232921 16 0.0 0.0 0.00 0.00 0.00 69 1001.4
20260506232423 16 0.0 0.0 0.00 0.00 0.00 69 1001.4
20260506231419 16 0.0 0.0 0.00 0.00 0.00 68 1001.4
20260506230924 16 0.0 0.0 0.00 0.00 0.00 68 1001.3
20260506225916 16 0.0 0.0 0.00 0.00 0.00 68 1001.3